• In Hungary
  • List of Countries
  • For 7 days
  • Water Temperature
  • Satellite Maps
  • Weather Map
  • News
  • Weather Widgets
  • user-avatar
    Login

    Hourly Weather Kushnanur

    Today, 20 September, Thursday

    Time Temperature Precipitation Wind Pressure Humidity
    00:00 +4°C° 0 mm 3 mps 735 mmHg 92%
    01:00 +4°C° 0 mm 3 mps 735 mmHg 93%
    02:00 +4°C° 0 mm 3 mps 735 mmHg 94%
    03:00 +4°C° 0 mm 2 mps 735 mmHg 95%
    04:00 +4°C° 0 mm 2 mps 735 mmHg 95%
    05:00 +4°C° 0 mm 2 mps 735 mmHg 95%
    06:00 +4°C° 0 mm 2 mps 736 mmHg 95%
    07:00 +5°C° 0 mm 3 mps 736 mmHg 88%
    08:00 +8°C° 0 mm 3 mps 736 mmHg 80%
    09:00 +10°C° 0 mm 3 mps 736 mmHg 71%
    10:00 +11°C° 0 mm 3 mps 736 mmHg 67%
    11:00 +12°C° 0 mm 3 mps 736 mmHg 63%
    12:00 +13°C° 0 mm 3 mps 736 mmHg 58%
    13:00 +13°C° 0 mm 3 mps 736 mmHg 60%
    14:00 +14°C° 0 mm 3 mps 736 mmHg 62%
    15:00 +15°C° 0 mm 2 mps 736 mmHg 63%
    16:00 +13°C° 0.1 mm 2 mps 736 mmHg 71%
    17:00 +12°C° 0.1 mm 1 mps 736 mmHg 78%
    18:00 +11°C° 0.1 mm 1 mps 736 mmHg 85%
    19:00 +11°C° 0.2 mm 1 mps 736 mmHg 86%
    20:00 +11°C° 0.2 mm 1 mps 736 mmHg 87%
    21:00 +11°C° 0.2 mm 1 mps 736 mmHg 89%
    22:00 +10°C° 0.1 mm 1 mps 736 mmHg 89%
    23:00 +9°C° 0.1 mm 0 mps 736 mmHg 90%

    Tomorrow, 21 September, Friday

    Time Temperature Precipitation Wind Pressure Humidity
    00:00 +9°C° 0.1 mm 0 mps 736 mmHg 91%
    01:00 +9°C° 0.1 mm 0 mps 737 mmHg 91%
    02:00 +9°C° 0.1 mm 0 mps 737 mmHg 91%
    03:00 +8°C° 0.1 mm 0 mps 737 mmHg 91%
    04:00 +9°C° 0 mm 0 mps 737 mmHg 91%
    05:00 +9°C° 0 mm 0 mps 738 mmHg 91%
    06:00 +9°C° 0 mm 0 mps 738 mmHg 92%
    07:00 +11°C° 0 mm 1 mps 739 mmHg 90%
    08:00 +11°C° 0 mm 1 mps 739 mmHg 88%
    09:00 +12°C° 0 mm 1 mps 739 mmHg 87%
    10:00 +13°C° 0 mm 1 mps 740 mmHg 86%
    11:00 +13°C° 0 mm 2 mps 740 mmHg 85%
    12:00 +14°C° 0 mm 2 mps 740 mmHg 84%
    13:00 +14°C° 0 mm 2 mps 740 mmHg 83%
    14:00 +15°C° 0 mm 2 mps 741 mmHg 82%
    15:00 +14°C° 0 mm 3 mps 741 mmHg 81%
    16:00 +15°C° 0 mm 2 mps 741 mmHg 85%
    17:00 +14°C° 0 mm 2 mps 741 mmHg 89%
    18:00 +13°C° 0 mm 2 mps 741 mmHg 93%
    19:00 +13°C° 0 mm 2 mps 742 mmHg 93%
    20:00 +13°C° 0 mm 2 mps 742 mmHg 94%
    21:00 +12°C° 0 mm 2 mps 742 mmHg 95%
    22:00 +12°C° 0 mm 2 mps 742 mmHg 95%
    23:00 +12°C° 0 mm 2 mps 742 mmHg 95%

    Day after tomorrow, 22 September, Saturday

    Time Temperature Precipitation Wind Pressure Humidity
    00:00 +12°C° 0 mm 2 mps 742 mmHg 95%
    01:00 +12°C° 0 mm 2 mps 743 mmHg 95%
    02:00 +12°C° 0 mm 2 mps 743 mmHg 95%
    03:00 +10°C° 0 mm 2 mps 743 mmHg 95%
    04:00 +10°C° 0 mm 2 mps 743 mmHg 96%
    05:00 +10°C° 0 mm 2 mps 743 mmHg 96%
    06:00 +10°C° 0 mm 2 mps 743 mmHg 96%
    07:00 +13°C° 0 mm 2 mps 743 mmHg 92%
    08:00 +15°C° 0 mm 2 mps 744 mmHg 88%
    09:00 +17°C° 0 mm 2 mps 744 mmHg 84%
    10:00 +18°C° 0 mm 3 mps 744 mmHg 78%
    11:00 +19°C° 0 mm 3 mps 744 mmHg 73%
    12:00 +21°C° 0 mm 3 mps 743 mmHg 68%
    13:00 +21°C° 0 mm 3 mps 743 mmHg 66%
    14:00 +22°C° 0 mm 3 mps 743 mmHg 64%
    15:00 +22°C° 0 mm 3 mps 743 mmHg 63%
    16:00 +20°C° 0 mm 3 mps 743 mmHg 70%
    17:00 +19°C° 0 mm 3 mps 743 mmHg 77%
    18:00 +17°C° 0 mm 2 mps 742 mmHg 84%
    19:00 +16°C° 0 mm 2 mps 742 mmHg 87%
    20:00 +16°C° 0 mm 2 mps 742 mmHg 89%
    21:00 +14°C° 0 mm 3 mps 742 mmHg 92%
    22:00 +14°C° 0 mm 3 mps 742 mmHg 92%
    23:00 +13°C° 0 mm 3 mps 742 mmHg 93%

    23 September, Sunday

    Time Temperature Precipitation Wind Pressure Humidity
    00:00 +13°C° 0 mm 3 mps 742 mmHg 94%
    01:00 +13°C° 0 mm 3 mps 742 mmHg 94%
    02:00 +12°C° 0 mm 3 mps 742 mmHg 94%
    03:00 +12°C° 0 mm 3 mps 742 mmHg 95%
    04:00 +12°C° 0 mm 3 mps 742 mmHg 95%
    05:00 +12°C° 0 mm 3 mps 742 mmHg 95%
    06:00 +12°C° 0 mm 3 mps 742 mmHg 95%
    07:00 +13°C° 0 mm 3 mps 741 mmHg 88%
    08:00 +15°C° 0 mm 4 mps 741 mmHg 82%
    09:00 +18°C° 0 mm 4 mps 741 mmHg 75%
    10:00 +19°C° 0 mm 5 mps 741 mmHg 69%
    11:00 +20°C° 0 mm 5 mps 741 mmHg 64%
    12:00 +21°C° 0 mm 6 mps 740 mmHg 59%
    13:00 +21°C° 0 mm 6 mps 740 mmHg 60%
    14:00 +21°C° 0 mm 6 mps 740 mmHg 60%
    15:00 +21°C° 0 mm 6 mps 739 mmHg 61%
    16:00 +20°C° 0 mm 5 mps 739 mmHg 65%
    17:00 +17°C° 0 mm 5 mps 739 mmHg 70%
    18:00 +16°C° 0 mm 5 mps 738 mmHg 74%
    19:00 +16°C° 0 mm 5 mps 738 mmHg 74%
    20:00 +15°C° 0 mm 5 mps 738 mmHg 73%
    21:00 +15°C° 0 mm 6 mps 737 mmHg 73%
    22:00 +15°C° 0 mm 6 mps 737 mmHg 70%
    23:00 +14°C° 0 mm 6 mps 736 mmHg 68%

    24 September, Monday

    Time Temperature Precipitation Wind Pressure Humidity
    00:00 +14°C° 0 mm 6 mps 736 mmHg 66%
    01:00 +14°C° 0 mm 6 mps 735 mmHg 62%
    02:00 +13°C° 0 mm 5 mps 735 mmHg 58%
    03:00 +13°C° 0 mm 5 mps 735 mmHg 55%
    04:00 +12°C° 0 mm 5 mps 735 mmHg 55%
    05:00 +12°C° 0 mm 5 mps 735 mmHg 56%
    06:00 +10°C° 0 mm 5 mps 736 mmHg 57%
    07:00 +11°C° 0.1 mm 4 mps 736 mmHg 64%
    08:00 +11°C° 0.1 mm 4 mps 736 mmHg 71%
    09:00 +11°C° 0.1 mm 4 mps 737 mmHg 78%
    10:00 +10°C° 0.5 mm 3 mps 737 mmHg 80%
    11:00 +10°C° 0.5 mm 3 mps 737 mmHg 82%
    12:00 +10°C° 0.5 mm 2 mps 738 mmHg 84%
    13:00 +12°C° 0.1 mm 2 mps 738 mmHg 77%
    14:00 +13°C° 0.1 mm 2 mps 738 mmHg 71%
    15:00 +14°C° 0.1 mm 1 mps 739 mmHg 64%
    16:00 +13°C° 0 mm 2 mps 739 mmHg 70%
    17:00 +10°C° 0 mm 2 mps 739 mmHg 75%
    18:00 +9°C° 0 mm 2 mps 739 mmHg 80%
    19:00 +9°C° 0 mm 2 mps 738 mmHg 82%
    20:00 +8°C° 0 mm 2 mps 738 mmHg 85%
    21:00 +7°C° 0 mm 2 mps 738 mmHg 87%
    22:00 +7°C° 0 mm 2 mps 737 mmHg 88%
    23:00 +7°C° 0 mm 2 mps 737 mmHg 89%

    25 September, Tuesday

    Time Temperature Precipitation Wind Pressure Humidity
    00:00 +7°C° 0 mm 2 mps 737 mmHg 89%
    01:00 +7°C° 0 mm 2 mps 736 mmHg 89%
    02:00 +7°C° 0 mm 3 mps 736 mmHg 88%
    03:00 +7°C° 0 mm 3 mps 735 mmHg 88%
    04:00 +7°C° 0 mm 3 mps 735 mmHg 87%
    05:00 +6°C° 0 mm 4 mps 735 mmHg 87%
    06:00 +7°C° 0 mm 4 mps 734 mmHg 86%
    07:00 +8°C° 0.1 mm 5 mps 734 mmHg 81%
    08:00 +9°C° 0.1 mm 6 mps 733 mmHg 75%
    09:00 +10°C° 0.1 mm 6 mps 733 mmHg 70%
    10:00 +10°C° 0.8 mm 7 mps 733 mmHg 72%
    11:00 +10°C° 0.8 mm 7 mps 733 mmHg 75%
    12:00 +10°C° 0.8 mm 8 mps 733 mmHg 78%
    13:00 +10°C° 0.2 mm 7 mps 733 mmHg 77%
    14:00 +10°C° 0.2 mm 7 mps 733 mmHg 76%
    15:00 +10°C° 0.2 mm 7 mps 733 mmHg 76%
    16:00 +10°C° 0 mm 7 mps 734 mmHg 77%
    17:00 +9°C° 0 mm 6 mps 734 mmHg 78%
    18:00 +9°C° 0 mm 6 mps 734 mmHg 79%
    19:00 +8°C° 0 mm 5 mps 735 mmHg 78%
    20:00 +7°C° 0 mm 5 mps 735 mmHg 78%
    21:00 +7°C° 0 mm 5 mps 736 mmHg 78%
    22:00 +6°C° 0 mm 5 mps 736 mmHg 79%
    23:00 +5°C° 0 mm 4 mps 737 mmHg 80%
    Show more